CW7615 Weather Reports


time (UTC)temp
F
wind
direction
speed
knots
gust
knots
rain 1hr
in
rain 24hr
in
rain mn
in
humidity
%
barometer
mb
20260507033004 59 19 4.3 7.0 0.00 0.00 0.00 67 1010.0
20260507032504 58 355 4.3 7.8 0.00 0.00 0.00 67 1010.1
20260507032003 58 350 3.5 7.8 0.00 0.00 0.00 67 1010.1
20260507031503 58 360 5.2 7.8 0.00 0.00 0.00 66 1010.2
20260507031004 58 5 4.3 7.8 0.00 0.00 0.00 67 1010.2
20260507030503 58 17 5.2 7.8 0.00 0.00 0.00 67 1010.2
20260507030004 58 360 4.3 7.8 0.00 0.00 0.00 67 1010.3
20260507025503 58 350 4.3 7.8 0.00 0.00 0.00 67 1010.2
20260507025003 57 355 5.2 7.8 0.00 0.00 0.00 67 1010.3
20260507024502 57 355 4.3 7.8 0.00 0.00 0.00 67 1010.3
20260507024002 57 355 4.3 8.7 0.00 0.00 0.00 67 1010.2
20260507023500 57 350 6.1 8.7 0.00 0.00 0.00 66 1010.2
20260507023100 57 10 4.3 7.8 0.00 0.00 0.00 66 1010.2
20260507022559 57 351 3.5 7.8 0.00 0.00 0.00 67 1010.3
20260507022059 57 360 3.5 7.8 0.00 0.00 0.00 67 1010.2
20260507021559 57 333 3.5 7.8 0.00 0.00 0.00 67 1010.1
20260507021057 57 346 3.5 7.8 0.00 0.00 0.00 67 1010.2
20260507020555 57 355 3.5 7.8 0.00 0.00 0.00 67 1010.2
20260507020157 57 355 4.3 7.8 0.00 0.00 0.00 67 1010.3
20260507015553 57 355 2.6 4.3 0.00 0.00 0.00 67 1010.3
20260507015056 57 343 1.7 5.2 0.00 0.00 0.00 67 1010.5
20260507014554 58 345 2.6 5.2 0.00 0.00 0.00 66 1010.3
20260507014053 58 5 2.6 5.2 0.00 0.00 0.00 65 1010.3
20260507013553 58 313 1.7 5.2 0.00 0.00 0.00 66 1010.3
20260507013059 58 313 2.6 5.2 0.00 0.00 0.00 66 1010.3
20260507012551 58 333 0.9 5.2 0.00 0.00 0.00 65 1010.2
20260507012052 58 314 2.6 7.0 0.00 0.00 0.00 65 1010.2
20260507011555 58 315 3.5 7.0 0.00 0.00 0.00 65 1010.3
20260507011051 58 340 3.5 5.2 0.00 0.00 0.00 65 1010.3
20260507010550 58 340 1.7 5.2 0.00 0.00 0.00 65 1010.3
20260507010049 58 347 2.6 7.0 0.00 0.00 0.00 65 1010.3
20260507005550 58 360 3.5 7.8 0.00 0.00 0.00 66 1010.2
20260507005047 58 5 4.3 7.0 0.00 0.00 0.00 66 1010.2
20260507004548 58 9 3.5 8.7 0.00 0.00 0.00 66 1010.2
20260507004046 58 15 3.5 8.7 0.00 0.00 0.00 67 1010.2
20260507003550 58 355 5.2 8.7 0.00 0.00 0.00 67 1010.3
20260507003046 58 5 3.5 7.8 0.00 0.00 0.00 68 1010.3
20260507002544 59 349 3.5 7.8 0.00 0.00 0.00 68 1010.4
20260507002142 59 355 5.2 7.8 0.00 0.00 0.00 68 1010.6
20260507001542 59 355 4.3 7.8 0.00 0.00 0.00 69 1010.6
20260507001038 59 344 2.6 5.2 0.00 0.00 0.00 69 1010.6
20260507000540 59 342 1.7 4.3 0.00 0.00 0.00 69 1010.7
20260507000040 59 344 1.7 4.3 0.00 0.00 0.00 70 1010.7
20260506235537 59 5 2.6 7.0 0.00 0.00 0.00 70 1010.7
20260506235036 59 23 4.3 7.0 0.00 0.00 0.00 70 1010.8
20260506234536 59 325 2.6 4.3 0.00 0.00 0.00 70 1010.9
20260506234035 59 344 2.6 4.3 0.00 0.00 0.00 70 1011.0
20260506233536 59 345 0.0 1.7 0.00 0.00 0.00 71 1011.1
20260506233036 59 344 0.0 3.5 0.00 0.00 0.00 71 1011.1
20260506232533 59 342 0.9 3.5 0.00 0.00 0.00 71 1011.1
20260506232033 59 347 0.9 3.5 0.00 0.00 0.00 71 1011.0
20260506231532 60 337 1.7 3.5 0.00 0.00 0.00 71 1011.0
20260506231033 60 347 1.7 4.3 0.00 0.00 0.00 71 1011.1
20260506230531 60 342 1.7 4.3 0.00 0.00 0.00 71 1011.0
20260506230032 60 351 2.6 4.3 0.00 0.00 0.00 72 1010.9
20260506225530 60 355 0.0 3.5 0.00 0.00 0.00 71 1011.0
20260506225031 60 333 0.9 3.5 0.00 0.00 0.00 71 1011.1
20260506224530 60 348 0.9 3.5 0.00 0.00 0.00 70 1011.1
20260506224028 60 351 0.9 3.5 0.00 0.00 0.00 72 1011.1
20260506223528 60 344 0.0 2.6 0.00 0.00 0.00 74 1011.2
20260506223027 60 344 0.0 1.7 0.00 0.00 0.00 72 1011.1
20260506222531 60 344 0.0 2.6 0.00 0.00 0.00 72 1011.1
20260506222027 61 344 0.0 2.6 0.00 0.00 0.00 74 1011.0
20260506221526 61 344 0.0 0.9 0.00 0.00 0.00 72 1011.1
20260506221024 60 344 0.0 4.3 0.00 0.00 0.00 71 1011.1
20260506220523 60 344 1.7 4.3 0.00 0.00 0.00 71 1011.0
20260506220023 61 350 1.7 3.5 0.00 0.00 0.00 71 1011.0
20260506215523 61 346 1.7 3.5 0.00 0.00 0.00 71 1011.0
20260506215022 61 338 0.9 2.6 0.00 0.00 0.00 72 1011.1
20260506214522 61 332 0.0 0.9 0.00 0.00 0.00 73 1011.1
20260506214022 61 332 0.0 1.7 0.00 0.00 0.00 73 1010.9
20260506213521 61 332 0.0 1.7 0.00 0.00 0.00 73 1011.0
20260506213021 61 331 0.0 0.0 0.00 0.00 0.00 74 1010.9
20260506212522 62 331 0.0 0.9 0.00 0.00 0.00 74 1011.0
20260506212022 62 331 0.0 0.9 0.00 0.00 0.00 75 1011.0
20260506211522 62 331 0.0 0.9 0.00 0.00 0.00 74 1011.0
20260506211020 62 331 0.0 1.7 0.00 0.00 0.00 75 1011.0
20260506210023 62 331 0.0 2.6 0.00 0.00 0.00 75 1010.9
20260506205519 62 331 0.0 2.6 0.00 0.00 0.00 75 1010.9
20260506205023 62 331 0.9 2.6 0.00 0.00 0.00 76 1010.9
20260506204520 62 63 0.9 2.6 0.00 0.00 0.00 76 1010.8
20260506204018 62 130 0.0 0.9 0.00 0.00 0.00 76 1010.9
20260506203518 62 130 0.0 0.0 0.00 0.00 0.00 77 1010.8
20260506203020 62 130 0.0 0.9 0.00 0.00 0.00 77 1010.7
20260506202516 62 130 0.0 0.9 0.00 0.00 0.00 76 1010.7
20260506202021 62 130 0.0 0.0 0.00 0.00 0.00 76 1010.6
20260506201516 62 130 0.0 0.0 0.00 0.00 0.00 76 1010.6
20260506201019 62 130 0.0 0.0 0.00 0.00 0.00 76 1010.4
20260506200522 62 130 0.0 0.0 0.00 0.00 0.00 76 1010.3
20260506200016 63 130 0.0 0.9 0.00 0.00 0.00 76 1010.3
20260506195516 63 130 0.0 1.7 0.00 0.00 0.00 76 1010.2
20260506195016 63 130 0.0 1.7 0.00 0.00 0.00 76 1010.0
20260506194516 63 130 0.0 1.7 0.00 0.00 0.00 76 1009.9
20260506194015 63 130 0.0 1.7 0.00 0.00 0.00 76 1009.7
20260506193515 63 130 0.0 1.7 0.00 0.00 0.00 76 1009.6
20260506193016 63 130 0.0 2.6 0.00 0.00 0.00 76 1009.7
20260506192514 63 129 0.0 2.6 0.00 0.00 0.00 75 1009.7
20260506192014 63 130 0.0 3.5 0.00 0.00 0.00 75 1009.7
20260506191514 63 130 0.9 3.5 0.00 0.00 0.00 74 1009.6
20260506191014 63 124 1.7 5.2 0.00 0.00 0.00 74 1009.7
20260506190512 64 125 1.7 5.2 0.00 0.00 0.00 73 1009.6
20260506190013 64 142 1.7 4.3 0.00 0.00 0.00 71 1009.5
20260506185511 64 132 1.7 4.3 0.00 0.00 0.00 69 1009.6
20260506185016 65 158 1.7 4.3 0.00 0.00 0.00 64 1009.4
20260506184512 65 150 1.7 4.3 0.00 0.00 0.00 63 1009.3
20260506184011 65 138 0.9 3.5 0.00 0.00 0.00 60 1009.2
20260506183511 65 138 0.9 3.5 0.00 0.00 0.00 59 1009.3
20260506183012 65 138 0.9 3.5 0.00 0.00 0.00 58 1009.1
20260506182509 65 138 0.0 2.6 0.00 0.00 0.00 57 1009.0
20260506182011 65 138 0.9 2.6 0.00 0.00 0.00 56 1009.0
20260506181510 65 126 0.9 2.6 0.00 0.00 0.00 56 1008.9
20260506181009 66 126 0.0 0.0 0.00 0.00 0.00 56 1009.1
20260506180509 66 126 0.0 0.0 0.00 0.00 0.00 54 1009.2
20260506180013 66 126 0.0 0.0 0.00 0.00 0.00 54 1009.2
20260506175507 66 126 0.0 0.9 0.00 0.00 0.00 53 1009.3
20260506175007 65 126 0.0 2.6 0.00 0.00 0.00 56 1009.4
20260506174507 65 126 0.9 2.6 0.00 0.00 0.00 58 1009.4
20260506174007 66 126 0.9 4.3 0.00 0.00 0.00 59 1009.7
20260506173507 66 126 1.7 4.3 0.00 0.00 0.00 59 1009.6
20260506173008 66 127 1.7 3.5 0.00 0.00 0.00 59 1009.7
20260506172507 66 128 0.9 4.3 0.00 0.00 0.00 58 1009.8
20260506172008 67 131 1.7 6.1 0.00 0.00 0.00 59 1009.8
20260506171512 67 147 2.6 6.1 0.00 0.00 0.00 59 1009.8
20260506171006 67 101 3.5 6.1 0.00 0.00 0.00 59 1009.8
20260506170505 68 109 3.5 6.1 0.00 0.00 0.00 60 1009.8
20260506170007 68 127 2.6 6.1 0.00 0.00 0.00 59 1009.7
20260506165505 68 140 0.9 6.1 0.00 0.00 0.00 57 1009.6
20260506165005 68 153 2.6 6.1 0.00 0.00 0.00 57 1009.4
20260506164505 69 142 1.7 3.5 0.00 0.00 0.00 56 1009.4
20260506164009 69 145 1.7 4.3 0.00 0.00 0.00 56 1009.5
20260506163507 69 150 1.7 4.3 0.00 0.00 0.00 56 1009.5
20260506163008 69 107 0.0 7.0 0.00 0.00 0.00 55 1009.5
20260506162504 69 115 0.0 5.2 0.00 0.00 0.00 55 1009.6
20260506162105 69 115 1.7 6.1 0.00 0.00 0.00 55 1009.5
20260506161504 68 132 1.7 7.0 0.00 0.00 0.00 56 1009.5
20260506161005 68 108 3.5 9.6 0.00 0.00 0.00 53 1009.7
20260506160503 68 115 5.2 9.6 0.00 0.00 0.00 52 1009.6
20260506160003 69 111 5.2 8.7 0.00 0.00 0.00 51 1009.5
20260506155503 69 98 4.3 8.7 0.00 0.00 0.00 49 1009.4
20260506155003 69 112 3.5 9.6 0.00 0.00 0.00 49 1009.4
20260506154503 69 105 2.6 9.6 0.00 0.00 0.00 50 1009.4
20260506154003 70 134 3.5 9.6 0.00 0.00 0.00 49 1009.4
20260506153503 70 112 5.2 9.6 0.00 0.00 0.00 50 1009.4
20260506153002 70 121 4.3 8.7 0.00 0.00 0.00 49 1009.5
20260506152502 70 187 4.3 10.4 0.00 0.00 0.00 50 1009.7
20260506152001 70 122 4.3 10.4 0.00 0.00 0.00 50 1009.6
20260506151601 70 94 5.2 9.6 0.00 0.00 0.00 49 1009.6
20260506151004 71 122 4.3 11.3 0.00 0.00 0.00 49 1009.7
20260506150502 71 105 2.6 11.3 0.00 0.00 0.00 49 1009.7
20260506150002 70 67 4.3 11.3 0.00 0.00 0.00 49 1009.8
20260506145501 70 128 5.2 11.3 0.00 0.00 0.00 49 1009.9
20260506145001 70 146 3.5 11.3 0.00 0.00 0.00 49 1009.9
20260506144501 70 96 4.3 9.6 0.00 0.00 0.00 49 1010.0
20260506144059 70 157 4.3 8.7 0.00 0.00 0.00 49 1009.9
20260506143559 70 138 2.6 8.7 0.00 0.00 0.00 49 1010.0
20260506143200 70 119 4.3 8.7 0.00 0.00 0.00 50 1010.1
20260506142600 70 90 3.5 9.6 0.00 0.00 0.00 50 1010.3
20260506142059 70 122 5.2 12.2 0.00 0.00 0.00 48 1010.3
20260506141604 70 118 4.3 13.9 0.00 0.00 0.00 48 1010.3
20260506141101 71 151 6.1 13.9 0.00 0.00 0.00 46 1010.6
20260506140602 71 139 5.2 10.4 0.00 0.00 0.00 46 1010.6
20260506140119 71 164 5.2 12.2 0.00 0.00 0.00 46 1010.5
20260506135602 71 138 3.5 12.2 0.00 0.00 0.00 46 1010.4
20260506135058 71 121 3.5 13.0 0.00 0.00 0.00 45 1010.4
20260506134559 72 119 5.2 10.4 0.00 0.00 0.00 45 1010.4
20260506134058 71 160 1.7 8.7 0.00 0.00 0.00 46 1010.3
20260506133557 71 142 4.3 8.7 0.00 0.00 0.00 46 1010.4
20260506133104 71 194 4.3 8.7 0.00 0.00 0.00 44 1010.3
20260506132557 71 92 3.5 9.6 0.00 0.00 0.00 44 1010.3
20260506132059 71 96 5.2 10.4 0.00 0.00 0.00 46 1010.2
20260506131557 71 115 4.3 10.4 0.00 0.00 0.00 44 1010.2
20260506131059 71 132 3.5 10.4 0.00 0.00 0.00 44 1010.1
20260506130558 71 90 6.1 10.4 0.00 0.00 0.00 43 1010.1
20260506130056 71 138 2.6 9.6 0.00 0.00 0.00 44 1010.1
20260506125555 71 138 5.2 9.6 0.00 0.00 0.00 44 1010.2
20260506125056 71 92 6.1 12.2 0.00 0.00 0.00 44 1010.2
20260506124557 72 132 5.2 12.2 0.00 0.00 0.00 44 1010.1
20260506124056 72 139 3.5 8.7 0.00 0.00 0.00 47 1010.1
20260506123559 72 128 5.2 8.7 0.00 0.00 0.00 46 1010.2
20260506123055 72 103 2.6 8.7 0.00 0.00 0.00 45 1010.2
20260506122558 72 105 5.2 8.7 0.00 0.00 0.00 44 1010.3
20260506122055 72 101 2.6 7.8 0.00 0.00 0.00 45 1010.4
20260506121555 72 115 4.3 8.7 0.00 0.00 0.00 46 1010.4
20260506121054 71 84 4.3 9.6 0.00 0.00 0.00 47 1010.5
20260506120554 71 123 5.2 11.3 0.00 0.00 0.00 48 1010.5
20260506120054 71 128 5.2 11.3 0.00 0.00 0.00 48 1010.5
20260506115553 72 111 5.2 7.8 0.00 0.00 0.00 49 1010.5
20260506115054 72 132 3.5 7.8 0.00 0.00 0.00 49 1010.5
20260506114558 72 103 0.9 7.8 0.00 0.00 0.00 49 1010.6
20260506114051 72 72 1.7 7.8 0.00 0.00 0.00 46 1010.6
20260506113551 72 132 3.5 8.7 0.00 0.00 0.00 47 1010.6
20260506113058 72 109 6.1 8.7 0.00 0.00 0.00 47 1010.7
20260506112552 72 113 4.3 8.7 0.00 0.00 0.00 47 1010.7
20260506112052 72 115 0.9 7.8 0.00 0.00 0.00 44 1010.6
20260506111552 72 112 4.3 11.3 0.00 0.00 0.00 43 1010.6
20260506111050 73 201 6.1 11.3 0.00 0.00 0.00 43 1010.5
20260506110549 73 124 5.2 10.4 0.00 0.00 0.00 43 1010.6
20260506110048 73 109 4.3 7.8 0.00 0.00 0.00 45 1010.5
20260506105548 73 121 3.5 8.7 0.00 0.00 0.00 47 1010.5
20260506105046 72 113 1.7 8.7 0.00 0.00 0.00 46 1010.6
20260506104554 72 108 4.3 7.8 0.00 0.00 0.00 47 1010.6
20260506104045 72 105 1.7 7.8 0.00 0.00 0.00 47 1010.7
20260506103544 71 105 3.5 7.8 0.00 0.00 0.00 47 1010.7
20260506103047 71 127 3.5 7.8 0.00 0.00 0.00 48 1010.8
20260506102544 72 113 2.6 7.8 0.00 0.00 0.00 49 1010.8
20260506102044 72 113 4.3 7.8 0.00 0.00 0.00 50 1010.9
20260506101549 71 85 2.6 7.8 0.00 0.00 0.00 48 1011.0
20260506101043 72 91 4.3 7.8 0.00 0.00 0.00 49 1011.1
20260506100542 72 133 3.5 7.0 0.00 0.00 0.00 52 1011.0
20260506100043 72 111 2.6 7.0 0.00 0.00 0.00 52 1011.1
20260506095541 72 178 2.6 7.8 0.00 0.00 0.00 50 1011.0
20260506095043 72 101 2.6 7.8 0.00 0.00 0.00 53 1011.1
20260506094537 72 115 2.6 7.8 0.00 0.00 0.00 53 1011.1
20260506094037 72 97 3.5 7.8 0.00 0.00 0.00 54 1011.1
20260506093539 71 119 1.7 7.8 0.00 0.00 0.00 56 1011.1
20260506093035 71 126 3.5 7.0 0.00 0.00 0.00 56 1011.1
20260506092533 71 128 3.5 7.8 0.00 0.00 0.00 55 1011.0
20260506092033 71 115 2.6 7.8 0.00 0.00 0.00 54 1011.0
20260506091531 71 67 0.0 7.8 0.00 0.00 0.00 55 1010.8
20260506091029 71 107 3.5 7.8 0.00 0.00 0.00 54 1010.9
20260506090531 71 74 1.7 6.1 0.00 0.00 0.00 54 1010.9
20260506090026 70 89 1.7 6.1 0.00 0.00 0.00 55 1010.8
20260506085524 70 81 2.6 7.0 0.00 0.00 0.00 56 1011.0
20260506085023 70 128 3.5 7.0 0.00 0.00 0.00 55 1010.9
20260506084532 69 66 2.6 8.7 0.00 0.00 0.00 56 1010.9
20260506084020 69 99 4.3 8.7 0.00 0.00 0.00 56 1011.1
20260506083524 69 121 6.1 8.7 0.00 0.00 0.00 57 1011.0
20260506083018 69 49 4.3 6.1 0.00 0.00 0.00 58 1010.8
20260506082517 70 44 2.6 5.2 0.00 0.00 0.00 57 1010.7
20260506082020 70 43 2.6 4.3 0.00 0.00 0.00 57 1010.7
20260506081517 69 42 1.7 5.2 0.00 0.00 0.00 58 1010.7
20260506081017 69 49 2.6 6.1 0.00 0.00 0.00 58 1010.7
20260506080512 69 47 3.5 6.1 0.00 0.00 0.00 58 1010.7
20260506073503 69 32 0.9 4.3 0.00 0.00 0.00 57 1010.3
20260506073002 69 32 0.0 2.6 0.00 0.00 0.00 57 1010.2
20260506072501 68 31 0.9 2.6 0.00 0.00 0.00 55 1010.2
20260506072101 68 32 0.9 3.5 0.00 0.00 0.00 53 1010.2
20260506071558 68 29 0.0 3.5 0.00 0.00 0.00 49 1010.1
20260506071057 68 29 0.9 2.6 0.00 0.00 0.00 47 1010.0
20260506070556 67 22 0.9 3.5 0.00 0.00 0.00 47 1010.0
20260506062042 60 327 1.7 5.2 0.00 0.00 0.00 62 1010.0
20260506061542 59 338 2.6 5.2 0.00 0.00 0.00 61 1010.1
20260506061043 59 342 0.9 1.7 0.00 0.00 0.00 68 1010.0
20260506060540 59 342 0.0 2.6 0.00 0.00 0.00 66 1010.1
20260506051033 61 24 0.0 0.9 0.00 0.00 0.00 67 1009.6
20260506050530 61 28 0.0 3.5 0.00 0.00 0.00 66 1009.5
20260506045025 62 31 0.0 3.5 0.00 0.00 0.00 61 1009.5
20260506044524 63 32 1.7 2.6 0.00 0.00 0.00 58 1009.5
20260506044021 63 30 0.9 3.5 0.00 0.00 0.00 48 1009.6
20260506043523 63 30 0.9 4.3 0.00 0.00 0.00 47 1009.6
20260506043020 63 30 0.9 4.3 0.00 0.00 0.00 45 1009.4
20260506042522 63 21 1.7 3.5 0.00 0.00 0.00 43 1009.4
20260506042021 64 22 1.7 7.8 0.00 0.00 0.00 44 1009.5
20260506041520 64 29 3.5 8.7 0.00 0.00 0.00 43 1009.4
20260506041019 63 14 4.3 8.7 0.00 0.00 0.00 43 1009.4
20260506040519 63 355 4.3 7.0 0.00 0.00 0.00 44 1009.4
20260506040033 63 345 4.3 7.0 0.00 0.00 0.00 44 1009.5
20260506035519 63 10 2.6 5.2 0.00 0.00 0.00 44 1009.5
20260506035017 63 27 1.7 7.0 0.00 0.00 0.00 45 1009.4
20260506034516 63 9 1.7 7.0 0.00 0.00 0.00 44 1009.5
20260506034014 64 11 2.6 5.2 0.00 0.00 0.00 44 1009.6
20260506033515 64 9 0.9 5.2 0.00 0.00 0.00 44 1009.6